Time,TemperatureF,DewpointF,PressureIn,WindDirection,WindDirectionDegrees,WindSpeedMPH,WindSpeedGustMPH,Humidity,HourlyPrecipIn,Conditions,Clouds,dailyrainin,SoftwareType,DateUTC
2013-02-01 00:03:00,29.2,19.2,30.07,NNE,19,2.3,2.3,66,0.00,-RA,OVC,0.00,WeatherDisplay:10.37,2013-02-01 07:03:00,
2013-02-01 00:08:00,29.0,19.1,30.07,NNE,19,0.0,0.0,66,0.00,-RA,OVC,0.00,WeatherDisplay:10.37,2013-02-01 07:08:00,
2013-02-01 00:13:00,28.7,18.8,30.07,NNE,19,0.0,0.0,66,0.00,-RA,OVC,0.00,WeatherDisplay:10.37,2013-02-01 07:13:00,
2013-02-01 00:18:00,28.5,18.9,30.07,NNE,19,0.0,0.0,67,0.00,-RA,OVC,0.00,WeatherDisplay:10.37,2013-02-01 07:18:00,
2013-02-01 00:23:00,28.5,18.9,30.07,SE,128,2.3,0.0,67,0.00,-RA,OVC,0.00,WeatherDisplay:10.37,2013-02-01 07:23:00,
2013-02-01 00:28:00,29.1,18.8,30.07,SE,128,3.5,3.5,65,0.00,-RA,OVC,0.00,WeatherDisplay:10.37,2013-02-01 07:28:00,
2013-02-01 00:33:00,29.6,18.9,30.07,SE,128,3.5,3.5,64,0.00,-RA,OVC,0.00,WeatherDisplay:10.37,2013-02-01 07:33:00,
2013-02-01 00:38:00,30.2,18.7,30.07,SE,128,3.5,3.5,62,0.00,-RA,OVC,0.00,WeatherDisplay:10.37,2013-02-01 07:38:00,
2013-02-01 00:43:00,30.6,18.3,30.07,SE,127,0.0,0.0,60,0.00,-RA,OVC,0.00,WeatherDisplay:10.37,2013-02-01 07:43:00,
2013-02-01 00:48:00,30.9,18.6,30.07,SE,128,1.1,0.0,60,0.00,-RA,OVC,0.00,WeatherDisplay:10.37,2013-02-01 07:48:00,
2013-02-01 00:53:00,31.1,18.4,30.07,SE,128,0.0,0.0,59,0.00,-RA,OVC,0.00,WeatherDisplay:10.37,2013-02-01 07:53:00,
2013-02-01 00:58:00,31.3,17.8,30.07,SE,128,0.0,0.0,57,0.00,-RA,OVC,0.00,WeatherDisplay:10.37,2013-02-01 07:58:00,
2013-02-01 01:03:00,32.0,17.6,30.07,SE,128,0.0,0.0,55,0.00,-RA,OVC,0.00,WeatherDisplay:10.37,2013-02-01 08:03:00,
2013-02-01 01:08:00,32.3,17.5,30.07,SE,128,2.3,2.3,54,0.00,-RA,OVC,0.00,WeatherDisplay:10.37,2013-02-01 08:08:00,
2013-02-01 01:13:00,33.4,17.6,30.07,North,9,4.6,4.6,52,0.00,-RA,OVC,0.00,WeatherDisplay:10.37,2013-02-01 08:13:00,
2013-02-01 01:18:00,33.8,18.0,30.07,North,9,3.5,3.5,52,0.00,-RA,OVC,0.00,WeatherDisplay:10.37,2013-02-01 08:18:00,
2013-02-01 01:23:00,33.3,18.0,30.07,North,9,2.3,2.3,53,0.00,-RA,OVC,0.00,WeatherDisplay:10.37,2013-02-01 08:23:00,
2013-02-01 01:28:00,32.6,17.3,30.07,North,9,2.3,2.3,53,0.00,-RA,OVC,0.00,WeatherDisplay:10.37,2013-02-01 08:28:00,
2013-02-01 01:33:00,32.3,17.5,30.05,North,9,3.5,3.5,54,0.00,-RA,OVC,0.00,WeatherDisplay:10.37,2013-02-01 08:33:00,
2013-02-01 01:38:00,32.0,17.6,30.05,North,9,0.0,0.0,55,0.00,-RA,OVC,0.00,WeatherDisplay:10.37,2013-02-01 08:38:00,
2013-02-01 01:43:00,31.6,17.3,30.05,North,9,3.5,3.5,55,0.00,-RA,OVC,0.00,WeatherDisplay:10.37,2013-02-01 08:43:00,
2013-02-01 01:48:00,31.1,17.2,30.05,East,89,3.5,3.5,56,0.00,-RA,OVC,0.00,WeatherDisplay:10.37,2013-02-01 08:48:00,
2013-02-01 01:53:00,31.2,17.3,30.05,East,89,0.0,0.0,56,0.00,-RA,OVC,0.00,WeatherDisplay:10.37,2013-02-01 08:53:00,
2013-02-01 01:58:00,31.1,17.2,30.05,East,89,0.0,0.0,56,0.00,-RA,OVC,0.00,WeatherDisplay:10.37,2013-02-01 08:58:00,
2013-02-01 02:03:00,31.0,17.1,30.05,East,89,0.0,0.0,56,0.00,-RA,OVC,0.00,WeatherDisplay:10.37,2013-02-01 09:03:00,
2013-02-01 02:08:00,30.6,16.7,30.05,East,88,1.0,0.0,56,0.00,-RA,OVC,0.00,WeatherDisplay:10.37,2013-02-01 09:08:00,
2013-02-01 02:13:00,30.4,17.0,30.05,East,88,0.0,0.0,57,0.00,-RA,OVC,0.00,WeatherDisplay:10.37,2013-02-01 09:13:00,
2013-02-01 02:18:00,30.1,17.1,30.05,East,88,0.0,0.0,58,0.00,-RA,OVC,0.00,WeatherDisplay:10.37,2013-02-01 09:18:00,
2013-02-01 02:23:00,29.7,16.7,30.06,East,88,0.0,0.0,58,0.00,-RA,OVC,0.00,WeatherDisplay:10.37,2013-02-01 09:23:00,
2013-02-01 02:28:00,29.3,16.7,30.06,East,88,1.1,1.1,59,0.00,-RA,OVC,0.00,WeatherDisplay:10.37,2013-02-01 09:28:00,
2013-02-01 02:33:00,28.9,16.7,30.06,East,88,3.5,3.5,60,0.00,-RA,OVC,0.00,WeatherDisplay:10.37,2013-02-01 09:33:00,
2013-02-01 02:38:00,28.5,16.7,30.06,East,83,3.5,3.5,61,0.00,-RA,OVC,0.00,WeatherDisplay:10.37,2013-02-01 09:38:00,
2013-02-01 02:43:00,28.2,16.5,30.05,East,83,2.3,2.3,61,0.00,-RA,OVC,0.00,WeatherDisplay:10.37,2013-02-01 09:43:00,
2013-02-01 02:48:00,27.8,16.8,30.05,East,90,3.5,3.5,63,0.00,-RA,OVC,0.00,WeatherDisplay:10.37,2013-02-01 09:48:00,
2013-02-01 02:53:00,27.7,16.7,30.05,ESE,115,4.6,4.6,63,0.00,-RA,OVC,0.00,WeatherDisplay:10.37,2013-02-01 09:53:00,
2013-02-01 02:58:00,27.8,16.8,30.05,SSE,147,4.0,4.0,63,0.00,-RA,OVC,0.00,WeatherDisplay:10.37,2013-02-01 09:58:00,
2013-02-01 03:03:00,27.7,16.7,30.05,NNE,32,3.5,3.6,63,0.00,-RA,OVC,0.00,WeatherDisplay:10.37,2013-02-01 10:03:00,
2013-02-01 03:08:00,28.0,16.6,30.05,SE,145,3.5,3.5,62,0.00,-RA,OVC,0.00,WeatherDisplay:10.37,2013-02-01 10:08:00,
2013-02-01 03:13:00,28.5,16.4,30.05,SE,144,1.1,0.0,60,0.00,-RA,OVC,0.00,WeatherDisplay:10.37,2013-02-01 10:13:00,
2013-02-01 03:18:00,28.8,16.6,30.05,SE,144,0.0,0.0,60,0.00,-RA,OVC,0.00,WeatherDisplay:10.37,2013-02-01 10:18:00,
2013-02-01 03:23:00,28.8,16.3,30.05,SE,144,0.0,0.0,59,0.00,-RA,OVC,0.00,WeatherDisplay:10.37,2013-02-01 10:23:00,
2013-02-01 03:28:00,28.6,16.5,30.05,SE,144,0.0,0.0,60,0.00,-RA,OVC,0.00,WeatherDisplay:10.37,2013-02-01 10:28:00,
2013-02-01 03:33:00,28.3,16.2,30.05,SE,144,3.5,3.5,60,0.00,-RA,OVC,0.00,WeatherDisplay:10.37,2013-02-01 10:33:00,
2013-02-01 03:38:00,28.0,16.3,30.05,ESE,123,3.5,3.5,61,0.00,-RA,OVC,0.00,WeatherDisplay:10.37,2013-02-01 10:38:00,
2013-02-01 03:43:00,27.9,16.6,30.05,ESE,123,2.3,2.3,62,0.00,-RA,OVC,0.00,WeatherDisplay:10.37,2013-02-01 10:43:00,
2013-02-01 03:48:00,27.6,16.3,30.05,ESE,123,2.3,2.3,62,0.00,-RA,OVC,0.00,WeatherDisplay:10.37,2013-02-01 10:48:00,
2013-02-01 03:53:00,27.4,16.4,30.05,ESE,123,3.5,3.5,63,0.00,-RA,OVC,0.00,WeatherDisplay:10.37,2013-02-01 10:53:00,
2013-02-01 03:58:00,27.0,16.1,30.05,ESE,123,0.0,0.0,63,0.00,-RA,OVC,0.00,WeatherDisplay:10.37,2013-02-01 10:58:00,
2013-02-01 04:03:00,26.7,16.1,30.05,ESE,123,0.0,0.0,64,0.00,-RA,OVC,0.00,WeatherDisplay:10.37,2013-02-01 11:03:00,
2013-02-01 04:08:00,26.4,16.2,30.05,ESE,123,1.1,1.1,65,0.00,-RA,OVC,0.00,WeatherDisplay:10.37,2013-02-01 11:08:00,
2013-02-01 04:13:00,26.2,16.0,30.05,ESE,123,1.0,1.0,65,0.00,-RA,OVC,0.00,WeatherDisplay:10.37,2013-02-01 11:13:00,
2013-02-01 04:18:00,26.3,15.8,30.05,ESE,122,2.3,2.3,64,0.00,-RA,OVC,0.00,WeatherDisplay:10.37,2013-02-01 11:18:00,
2013-02-01 04:23:00,26.7,16.1,30.05,ESE,122,1.1,0.0,64,0.00,-RA,OVC,0.00,WeatherDisplay:10.37,2013-02-01 11:23:00,
2013-02-01 04:28:00,26.9,16.0,30.05,ESE,122,2.0,2.0,63,0.00,-RA,OVC,0.00,WeatherDisplay:10.37,2013-02-01 11:28:00,
2013-02-01 04:33:00,26.8,15.9,30.05,ESE,122,3.5,3.5,63,0.00,-RA,OVC,0.00,WeatherDisplay:10.37,2013-02-01 11:33:00,
2013-02-01 04:38:00,26.7,15.8,30.05,ESE,122,2.3,2.3,63,0.00,-RA,OVC,0.00,WeatherDisplay:10.37,2013-02-01 11:38:00,
2013-02-01 04:43:00,26.4,15.9,30.05,ESE,122,3.5,3.5,64,0.00,-RA,OVC,0.00,WeatherDisplay:10.37,2013-02-01 11:43:00,
2013-02-01 04:48:00,25.9,15.7,30.05,SSE,162,3.5,3.5,65,0.00,-RA,OVC,0.00,WeatherDisplay:10.37,2013-02-01 11:48:00,
2013-02-01 04:53:00,25.8,15.6,30.05,SSE,165,3.5,3.5,65,0.00,-RA,OVC,0.00,WeatherDisplay:10.37,2013-02-01 11:53:00,
2013-02-01 04:58:00,25.7,15.6,30.05,SSE,167,3.5,3.5,65,0.00,-RA,OVC,0.00,WeatherDisplay:10.37,2013-02-01 11:58:00,
2013-02-01 05:03:00,25.8,15.6,30.05,SE,130,4.6,4.6,65,0.00,-RA,OVC,0.00,WeatherDisplay:10.37,2013-02-01 12:03:00,
2013-02-01 05:08:00,26.7,15.8,30.05,SE,125,3.5,3.5,63,0.00,-RA,OVC,0.00,WeatherDisplay:10.37,2013-02-01 12:08:00,
2013-02-01 05:13:00,27.1,15.8,30.04,SE,133,1.1,0.0,62,0.00,-RA,OVC,0.00,WeatherDisplay:10.37,2013-02-01 12:13:00,
2013-02-01 05:18:00,27.2,15.9,30.04,SSE,168,4.6,4.6,62,0.00,-RA,OVC,0.00,WeatherDisplay:10.37,2013-02-01 12:18:00,
2013-02-01 05:23:00,27.2,15.9,30.04,SSE,168,0.0,0.1,62,0.00,-RA,OVC,0.00,WeatherDisplay:10.37,2013-02-01 12:23:00,
2013-02-01 05:28:00,26.9,16.0,30.04,South,170,4.6,4.6,63,0.00,-RA,OVC,0.00,WeatherDisplay:10.37,2013-02-01 12:28:00,
2013-02-01 05:33:00,26.5,16.0,30.04,South,170,1.1,1.1,64,0.00,-RA,OVC,0.00,WeatherDisplay:10.37,2013-02-01 12:33:00,
2013-02-01 05:38:00,26.1,15.9,30.04,South,169,0.0,0.0,65,0.00,-RA,OVC,0.00,WeatherDisplay:10.37,2013-02-01 12:38:00,
2013-02-01 05:43:00,25.8,16.0,30.03,South,169,3.5,3.5,66,0.00,-RA,OVC,0.00,WeatherDisplay:10.37,2013-02-01 12:43:00,
2013-02-01 05:48:00,25.6,16.2,30.03,South,169,0.0,0.0,67,0.00,-RA,OVC,0.00,WeatherDisplay:10.37,2013-02-01 12:48:00,
2013-02-01 05:53:00,25.5,16.1,30.03,South,169,0.0,0.0,67,0.00,-RA,OVC,0.00,WeatherDisplay:10.37,2013-02-01 12:53:00,
2013-02-01 05:58:00,25.4,16.3,30.03,SE,136,3.5,3.5,68,0.00,-RA,OVC,0.00,WeatherDisplay:10.37,2013-02-01 12:58:00,
2013-02-01 06:03:00,25.6,16.5,30.03,South,180,5.8,5.8,68,0.00,-RA,OVC,0.00,WeatherDisplay:10.37,2013-02-01 13:03:00,
2013-02-01 06:08:00,25.5,16.4,30.03,ENE,78,3.5,3.5,68,0.00,-RA,OVC,0.00,WeatherDisplay:10.37,2013-02-01 13:08:00,
2013-02-01 06:13:00,25.3,16.2,30.03,SE,135,3.5,3.5,68,0.00,-RA,OVC,0.00,WeatherDisplay:10.37,2013-02-01 13:13:00,
2013-02-01 06:18:00,25.3,16.5,30.03,SE,132,3.5,3.5,69,0.00,-RA,OVC,0.00,WeatherDisplay:10.37,2013-02-01 13:18:00,
2013-02-01 06:23:00,25.1,16.4,30.03,SE,132,1.1,1.1,69,0.00,-RA,OVC,0.00,WeatherDisplay:10.37,2013-02-01 13:23:00,
2013-02-01 06:28:00,24.8,16.1,30.03,SE,132,0.0,0.0,69,0.00,-RA,OVC,0.00,WeatherDisplay:10.37,2013-02-01 13:28:00,
2013-02-01 06:33:00,24.6,16.2,30.03,SE,132,0.0,0.0,70,0.00,-RA,OVC,0.00,WeatherDisplay:10.37,2013-02-01 13:33:00,
2013-02-01 06:38:00,24.3,15.9,30.03,SE,132,3.5,3.5,70,0.00,-RA,OVC,0.00,WeatherDisplay:10.37,2013-02-01 13:38:00,
2013-02-01 06:43:00,24.2,16.1,30.03,SE,132,0.0,0.3,71,0.00,-RA,OVC,0.00,WeatherDisplay:10.37,2013-02-01 13:43:00,
2013-02-01 06:48:00,24.1,16.1,30.03,NE,35,4.6,4.6,71,0.00,-RA,OVC,0.00,WeatherDisplay:10.37,2013-02-01 13:48:00,
2013-02-01 06:53:00,24.2,15.8,30.03,NE,35,2.3,2.3,70,0.00,-RA,OVC,0.00,WeatherDisplay:10.37,2013-02-01 13:53:00,
2013-02-01 06:58:00,24.5,15.8,30.03,NE,35,1.0,0.0,69,0.00,-RA,OVC,0.00,WeatherDisplay:10.37,2013-02-01 13:58:00,
2013-02-01 07:03:00,24.8,15.7,30.03,NE,34,0.0,0.0,68,0.00,-RA,OVC,0.00,WeatherDisplay:10.37,2013-02-01 14:03:00,
2013-02-01 07:08:00,25.1,15.3,30.03,NNE,32,4.6,4.6,66,0.00,-RA,OVC,0.00,WeatherDisplay:10.37,2013-02-01 14:08:00,
2013-02-01 07:13:00,25.2,15.4,30.03,NNE,32,3.5,3.5,66,0.00,-RA,OVC,0.00,WeatherDisplay:10.37,2013-02-01 14:13:00,
2013-02-01 07:18:00,25.4,15.6,30.03,NNE,32,1.1,1.1,66,0.00,-RA,OVC,0.00,WeatherDisplay:10.37,2013-02-01 14:18:00,
2013-02-01 07:23:00,25.3,15.5,30.03,NNE,32,3.5,3.5,66,0.00,-RA,OVC,0.00,WeatherDisplay:10.37,2013-02-01 14:23:00,
2013-02-01 07:28:00,25.1,15.3,30.03,ESE,123,1.0,0.0,66,0.00,-RA,OVC,0.00,WeatherDisplay:10.37,2013-02-01 14:28:00,
2013-02-01 07:33:00,24.9,15.5,30.03,ESE,123,3.5,3.5,67,0.00,-RA,OVC,0.00,WeatherDisplay:10.37,2013-02-01 14:33:00,
2013-02-01 07:38:00,24.9,15.5,30.03,ESE,123,2.3,2.3,67,0.00,-RA,OVC,0.00,WeatherDisplay:10.37,2013-02-01 14:38:00,
2013-02-01 07:43:00,25.0,15.6,30.04,ESE,122,3.5,3.5,67,0.00,-RA,OVC,0.00,WeatherDisplay:10.37,2013-02-01 14:43:00,
2013-02-01 07:48:00,25.4,16.0,30.04,ESE,122,2.3,2.3,67,0.00,-RA,OVC,0.00,WeatherDisplay:10.37,2013-02-01 14:48:00,
2013-02-01 07:53:00,25.9,16.4,30.04,ESE,122,2.3,2.3,67,0.00,-RA,OVC,0.00,WeatherDisplay:10.37,2013-02-01 14:53:00,
2013-02-01 07:58:00,26.4,16.6,30.04,ESE,122,3.5,3.5,66,0.00,-RA,OVC,0.00,WeatherDisplay:10.37,2013-02-01 14:58:00,
2013-02-01 08:03:00,27.1,16.5,30.04,ESE,122,1.1,1.1,64,0.00,-RA,OVC,0.00,WeatherDisplay:10.37,2013-02-01 15:03:00,
2013-02-01 08:08:00,27.9,16.6,30.04,ESE,122,1.1,0.0,62,0.00,-RA,OVC,0.00,WeatherDisplay:10.37,2013-02-01 15:08:00,
2013-02-01 08:13:00,29.0,16.8,30.04,ESE,111,4.6,4.6,60,0.00,-RA,OVC,0.00,WeatherDisplay:10.37,2013-02-01 15:13:00,
2013-02-01 08:18:00,29.8,17.2,30.04,ESE,111,1.0,1.0,59,0.00,-RA,OVC,0.00,WeatherDisplay:10.37,2013-02-01 15:18:00,
2013-02-01 08:23:00,30.7,16.4,30.04,NNE,17,5.8,5.8,55,0.00,-RA,OVC,0.00,WeatherDisplay:10.37,2013-02-01 15:23:00,
2013-02-01 08:28:00,31.9,16.7,30.04,NE,34,4.6,4.6,53,0.00,-RA,OVC,0.00,WeatherDisplay:10.37,2013-02-01 15:28:00,
2013-02-01 08:33:00,32.6,16.4,30.05,NE,34,2.3,2.3,51,0.00,-RA,OVC,0.00,WeatherDisplay:10.37,2013-02-01 15:33:00,
2013-02-01 08:38:00,33.4,16.7,30.05,NE,34,3.5,3.5,50,0.00,-RA,OVC,0.00,WeatherDisplay:10.37,2013-02-01 15:38:00,
2013-02-01 08:43:00,33.8,16.6,30.05,NE,34,2.3,2.3,49,0.00,-RA,OVC,0.00,WeatherDisplay:10.37,2013-02-01 15:43:00,
2013-02-01 08:48:00,34.3,17.1,30.05,NE,34,1.1,1.1,49,0.00,-RA,OVC,0.00,WeatherDisplay:10.37,2013-02-01 15:48:00,
2013-02-01 08:53:00,34.7,17.0,30.05,NE,34,3.0,3.0,48,0.00,-RA,OVC,0.00,WeatherDisplay:10.37,2013-02-01 15:53:00,
2013-02-01 08:58:00,35.0,17.3,30.05,NE,34,3.5,3.5,48,0.00,-RA,OVC,0.00,WeatherDisplay:10.37,2013-02-01 15:58:00,
2013-02-01 09:03:00,35.4,17.1,30.05,NE,34,2.3,2.3,47,0.00,-RA,OVC,0.00,WeatherDisplay:10.37,2013-02-01 16:03:00,
2013-02-01 09:08:00,36.1,17.8,30.05,NE,34,1.1,1.1,47,0.00,-RA,OVC,0.00,WeatherDisplay:10.37,2013-02-01 16:08:00,
2013-02-01 09:13:00,37.0,17.6,30.05,NE,34,3.5,3.5,45,0.00,-RA,OVC,0.00,WeatherDisplay:10.37,2013-02-01 16:13:00,
2013-02-01 09:18:00,37.6,17.6,30.05,NE,34,3.5,3.5,44,0.00,-RA,OVC,0.00,WeatherDisplay:10.37,2013-02-01 16:18:00,
2013-02-01 09:23:00,38.3,17.2,30.05,NE,34,2.3,2.3,42,0.00,-RA,OVC,0.00,WeatherDisplay:10.37,2013-02-01 16:23:00,
2013-02-01 09:28:00,38.7,17.5,30.05,NE,34,4.6,4.6,42,0.00,-RA,OVC,0.00,WeatherDisplay:10.37,2013-02-01 16:28:00,
2013-02-01 09:33:00,39.4,17.6,30.05,NNW,347,3.5,3.5,41,0.00,-RA,OVC,0.00,WeatherDisplay:10.37,2013-02-01 16:33:00,
2013-02-01 09:38:00,39.7,17.9,30.05,NNE,28,4.6,4.6,41,0.00,-RA,OVC,0.00,WeatherDisplay:10.37,2013-02-01 16:38:00,
2013-02-01 09:43:00,39.7,17.9,30.05,NNE,27,3.5,3.5,41,0.00,-RA,OVC,0.00,WeatherDisplay:10.37,2013-02-01 16:43:00,
2013-02-01 09:48:00,40.1,17.7,30.05,NNW,343,6.9,6.9,40,0.00,-RA,OVC,0.00,WeatherDisplay:10.37,2013-02-01 16:48:00,
2013-02-01 09:53:00,40.5,16.2,30.05,North,355,6.9,6.9,37,0.00,-RA,OVC,0.00,WeatherDisplay:10.37,2013-02-01 16:53:00,
2013-02-01 09:58:00,40.9,17.2,30.05,NNE,30,3.5,3.5,38,0.00,-RA,OVC,0.00,WeatherDisplay:10.37,2013-02-01 16:58:00,
2013-02-01 10:03:00,41.6,17.2,30.05,NNE,30,2.3,2.3,37,0.00,-RA,OVC,0.00,WeatherDisplay:10.37,2013-02-01 17:03:00,
2013-02-01 10:08:00,42.4,17.9,30.05,NNE,30,1.1,0.0,37,0.00,-RA,OVC,0.00,WeatherDisplay:10.37,2013-02-01 17:08:00,
2013-02-01 10:13:00,43.0,17.2,30.05,NNE,26,2.3,2.3,35,0.00,-RA,OVC,0.00,WeatherDisplay:10.37,2013-02-01 17:13:00,
2013-02-01 10:18:00,43.2,17.4,30.05,South,190,4.6,4.6,35,0.00,-RA,OVC,0.00,WeatherDisplay:10.37,2013-02-01 17:18:00,
2013-02-01 10:23:00,43.4,17.5,30.05,NE,39,4.6,4.6,35,0.00,-RA,OVC,0.00,WeatherDisplay:10.37,2013-02-01 17:23:00,
2013-02-01 10:28:00,44.0,18.1,30.05,NE,38,3.5,3.5,35,0.00,-RA,OVC,0.00,WeatherDisplay:10.37,2013-02-01 17:28:00,
2013-02-01 10:33:00,44.7,17.3,30.05,North,355,2.3,2.3,33,0.00,-RA,OVC,0.00,WeatherDisplay:10.37,2013-02-01 17:33:00,
2013-02-01 10:38:00,45.7,17.5,30.05,SE,140,13.8,13.8,32,0.00,-RA,OVC,0.00,WeatherDisplay:10.37,2013-02-01 17:38:00,
2013-02-01 10:43:00,46.4,16.6,30.05,ESE,123,12.7,12.7,30,0.00,-RA,OVC,0.00,WeatherDisplay:10.37,2013-02-01 17:43:00,
2013-02-01 10:48:00,46.7,16.9,30.05,East,86,12.7,12.7,30,0.00,-RA,OVC,0.00,WeatherDisplay:10.37,2013-02-01 17:48:00,
2013-02-01 10:53:00,46.8,17.0,30.04,ESE,117,12.7,12.7,30,0.00,-RA,OVC,0.00,WeatherDisplay:10.37,2013-02-01 17:53:00,
2013-02-01 10:58:00,47.1,17.2,30.04,SE,127,17.3,17.3,30,0.00,-RA,OVC,0.00,WeatherDisplay:10.37,2013-02-01 17:58:00,
2013-02-01 11:03:00,47.2,16.5,30.04,ESE,123,11.5,11.5,29,0.00,-RA,OVC,0.00,WeatherDisplay:10.37,2013-02-01 18:03:00,
2013-02-01 11:08:00,47.2,15.7,30.04,SE,140,19.6,19.6,28,0.00,-RA,OVC,0.00,WeatherDisplay:10.37,2013-02-01 18:08:00,
2013-02-01 11:13:00,47.2,16.5,30.04,SE,131,9.2,9.2,29,0.00,-RA,OVC,0.00,WeatherDisplay:10.37,2013-02-01 18:13:00,
2013-02-01 11:18:00,47.4,15.9,30.04,SE,126,15.0,15.0,28,0.00,-RA,OVC,0.00,WeatherDisplay:10.37,2013-02-01 18:18:00,
2013-02-01 11:23:00,47.2,16.5,30.04,South,179,11.5,11.5,29,0.00,-RA,OVC,0.00,WeatherDisplay:10.37,2013-02-01 18:23:00,
2013-02-01 11:28:00,47.2,15.7,30.04,SE,131,11.5,11.5,28,0.00,-RA,OVC,0.00,WeatherDisplay:10.37,2013-02-01 18:28:00,
2013-02-01 11:33:00,47.5,16.0,30.04,ESE,118,13.8,13.8,28,0.00,-RA,OVC,0.00,WeatherDisplay:10.37,2013-02-01 18:33:00,
2013-02-01 11:38:00,47.6,16.1,30.04,East,91,11.5,11.5,28,0.00,-RA,OVC,0.00,WeatherDisplay:10.37,2013-02-01 18:38:00,
2013-02-01 11:43:00,47.7,16.1,30.04,SE,133,10.4,10.4,28,0.00,-RA,OVC,0.00,WeatherDisplay:10.37,2013-02-01 18:43:00,
2013-02-01 11:48:00,47.7,15.3,30.04,SE,129,9.2,9.2,27,0.00,-RA,OVC,0.00,WeatherDisplay:10.37,2013-02-01 18:48:00,
2013-02-01 11:53:00,48.0,15.6,30.04,SSE,161,12.7,12.7,27,0.00,-RA,OVC,0.00,WeatherDisplay:10.37,2013-02-01 18:53:00,
2013-02-01 11:58:00,48.3,15.8,30.04,South,171,10.4,10.4,27,0.00,-RA,OVC,0.00,WeatherDisplay:10.37,2013-02-01 18:58:00,
2013-02-01 12:03:00,48.5,16.0,30.04,SE,144,13.8,13.8,27,0.00,-RA,OVC,0.00,WeatherDisplay:10.37,2013-02-01 19:03:00,
2013-02-01 12:08:00,48.6,16.1,30.04,SE,134,12.7,12.7,27,0.00,-RA,OVC,0.00,WeatherDisplay:10.37,2013-02-01 19:08:00,
2013-02-01 12:13:00,48.8,15.4,30.04,SE,135,32.2,32.2,26,0.00,-RA,OVC,0.00,WeatherDisplay:10.37,2013-02-01 19:13:00,
2013-02-01 12:18:00,48.1,14.8,30.04,SE,126,19.6,19.6,26,0.00,-RA,OVC,0.00,WeatherDisplay:10.37,2013-02-01 19:18:00,
2013-02-01 12:23:00,48.1,15.6,30.04,SE,136,16.1,16.1,27,0.00,-RA,OVC,0.00,WeatherDisplay:10.37,2013-02-01 19:23:00,
2013-02-01 12:28:00,47.9,15.5,30.04,ESE,123,21.0,21.0,27,0.00,-RA,OVC,0.00,WeatherDisplay:10.37,2013-02-01 19:28:00,
2013-02-01 12:33:00,47.9,15.5,30.04,SE,145,15.0,15.0,27,0.00,-RA,OVC,0.00,WeatherDisplay:10.37,2013-02-01 19:33:00,
2013-02-01 12:38:00,48.0,15.6,30.04,ESE,117,18.4,18.4,27,0.00,-RA,OVC,0.00,WeatherDisplay:10.37,2013-02-01 19:38:00,
2013-02-01 12:43:00,48.2,14.9,30.04,ESE,113,18.4,18.4,26,0.00,-RA,OVC,0.00,WeatherDisplay:10.37,2013-02-01 19:43:00,
2013-02-01 12:48:00,47.9,15.5,30.04,SE,127,17.0,17.0,27,0.00,-RA,OVC,0.00,WeatherDisplay:10.37,2013-02-01 19:48:00,
2013-02-01 12:53:00,47.8,16.2,30.03,ESE,119,24.2,24.2,28,0.00,-RA,OVC,0.00,WeatherDisplay:10.37,2013-02-01 19:53:00,
2013-02-01 12:58:00,48.0,15.6,30.03,SE,139,18.4,18.4,27,0.00,-RA,OVC,0.00,WeatherDisplay:10.37,2013-02-01 19:58:00,
2013-02-01 13:03:00,47.9,15.5,30.03,ESE,122,13.8,13.8,27,0.00,-RA,OVC,0.00,WeatherDisplay:10.37,2013-02-01 20:03:00,
2013-02-01 13:08:00,48.2,16.6,30.03,SSE,156,13.8,13.8,28,0.00,-RA,OVC,0.00,WeatherDisplay:10.37,2013-02-01 20:08:00,
2013-02-01 13:13:00,48.4,15.9,30.03,SE,136,21.9,21.9,27,0.00,-RA,OVC,0.00,WeatherDisplay:10.37,2013-02-01 20:13:00,
2013-02-01 13:18:00,48.1,16.5,30.03,SE,134,17.3,17.3,28,0.00,-RA,OVC,0.00,WeatherDisplay:10.37,2013-02-01 20:18:00,
2013-02-01 13:23:00,48.2,16.6,30.03,SE,138,15.0,15.0,28,0.00,-RA,OVC,0.00,WeatherDisplay:10.37,2013-02-01 20:23:00,
2013-02-01 13:28:00,48.2,16.6,30.03,SSE,149,9.0,9.0,28,0.00,-RA,OVC,0.00,WeatherDisplay:10.37,2013-02-01 20:28:00,
2013-02-01 13:33:00,48.0,17.2,30.03,SE,135,16.1,16.1,29,0.00,-RA,OVC,0.00,WeatherDisplay:10.37,2013-02-01 20:33:00,
2013-02-01 13:38:00,47.6,17.6,30.03,SSE,166,20.7,20.7,30,0.00,-RA,OVC,0.00,WeatherDisplay:10.37,2013-02-01 20:38:00,
2013-02-01 13:43:00,47.3,17.4,30.03,SE,132,18.4,18.4,30,0.00,-RA,OVC,0.00,WeatherDisplay:10.37,2013-02-01 20:43:00,
2013-02-01 13:48:00,47.2,17.3,30.03,ESE,122,26.5,26.5,30,0.00,-RA,OVC,0.00,WeatherDisplay:10.37,2013-02-01 20:48:00,
2013-02-01 13:53:00,47.1,18.0,30.03,South,170,17.3,17.3,31,0.00,-RA,OVC,0.00,WeatherDisplay:10.37,2013-02-01 20:53:00,
2013-02-01 13:58:00,47.0,18.6,30.03,SSW,194,18.4,18.4,32,0.00,-RA,OVC,0.00,WeatherDisplay:10.37,2013-02-01 20:58:00,
2013-02-01 14:03:00,47.0,18.6,30.03,SE,128,16.1,16.1,32,0.00,-RA,OVC,0.00,WeatherDisplay:10.37,2013-02-01 21:03:00,
2013-02-01 14:08:00,47.1,18.7,30.03,SSE,165,11.5,11.5,32,0.00,-RA,OVC,0.00,WeatherDisplay:10.37,2013-02-01 21:08:00,
2013-02-01 14:13:00,47.2,19.5,30.03,ESE,113,11.5,11.5,33,0.00,-RA,OVC,0.00,WeatherDisplay:10.37,2013-02-01 21:13:00,
2013-02-01 14:18:00,47.2,18.8,30.03,SE,146,17.3,17.3,32,0.00,-RA,OVC,0.00,WeatherDisplay:10.37,2013-02-01 21:18:00,
2013-02-01 14:23:00,47.2,19.5,30.03,SE,132,13.8,13.8,33,0.00,-RA,OVC,0.00,WeatherDisplay:10.37,2013-02-01 21:23:00,
2013-02-01 14:28:00,47.3,19.6,30.03,SSW,204,10.4,10.4,33,0.00,-RA,OVC,0.00,WeatherDisplay:10.37,2013-02-01 21:28:00,
2013-02-01 14:33:00,47.1,20.1,30.03,SE,146,10.4,10.6,34,0.00,-RA,OVC,0.00,WeatherDisplay:10.37,2013-02-01 21:33:00,
2013-02-01 14:38:00,46.7,21.8,30.03,SSW,192,11.5,11.5,37,0.00,-RA,OVC,0.00,WeatherDisplay:10.37,2013-02-01 21:38:00,
2013-02-01 14:43:00,45.6,22.6,30.03,SE,139,11.5,11.5,40,0.00,-RA,OVC,0.00,WeatherDisplay:10.37,2013-02-01 21:43:00,
2013-02-01 14:48:00,45.3,23.0,30.03,South,177,12.0,12.0,41,0.00,-RA,OVC,0.00,WeatherDisplay:10.37,2013-02-01 21:48:00,
2013-02-01 14:53:00,45.1,23.3,30.03,SE,136,15.0,15.0,42,0.00,-RA,OVC,0.00,WeatherDisplay:10.37,2013-02-01 21:53:00,
2013-02-01 14:58:00,44.8,21.9,30.03,SSE,147,19.6,19.6,40,0.00,-RA,OVC,0.00,WeatherDisplay:10.37,2013-02-01 21:58:00,
2013-02-01 15:03:00,44.8,22.5,30.03,South,171,11.5,11.5,41,0.00,-RA,OVC,0.00,WeatherDisplay:10.37,2013-02-01 22:03:00,
2013-02-01 15:08:00,44.7,23.0,30.03,ESE,119,17.3,17.3,42,0.00,-RA,OVC,0.00,WeatherDisplay:10.37,2013-02-01 22:08:00,
2013-02-01 15:13:00,44.9,22.6,30.07,SSW,196,16.1,16.1,41,0.00,-RA,OVC,0.00,WeatherDisplay:10.37,2013-02-01 22:13:00,
2013-02-01 15:18:00,44.7,21.8,30.07,SSE,152,13.8,13.8,40,0.00,-RA,OVC,0.00,WeatherDisplay:10.37,2013-02-01 22:18:00,
2013-02-01 15:23:00,44.6,21.7,30.07,SE,140,19.6,19.6,40,0.00,-RA,OVC,0.00,WeatherDisplay:10.37,2013-02-01 22:23:00,
2013-02-01 15:28:00,44.8,21.9,30.07,South,178,12.7,12.7,40,0.00,-RA,OVC,0.00,WeatherDisplay:10.37,2013-02-01 22:28:00,
2013-02-01 15:33:00,44.9,22.0,30.07,SSE,167,10.4,10.4,40,0.00,-RA,OVC,0.00,WeatherDisplay:10.37,2013-02-01 22:33:00,
2013-02-01 15:38:00,45.0,22.1,30.07,ESE,121,12.0,12.0,40,0.00,-RA,OVC,0.00,WeatherDisplay:10.37,2013-02-01 22:38:00,
2013-02-01 15:43:00,45.0,22.1,30.07,South,169,15.0,15.0,40,0.00,-RA,OVC,0.00,WeatherDisplay:10.37,2013-02-01 22:43:00,
2013-02-01 15:48:00,44.7,21.8,30.07,ESE,117,12.7,12.7,40,0.00,-RA,OVC,0.00,WeatherDisplay:10.37,2013-02-01 22:48:00,
2013-02-01 15:53:00,44.7,22.4,30.07,SSW,200,7.0,7.0,41,0.00,-RA,OVC,0.00,WeatherDisplay:10.37,2013-02-01 22:53:00,
2013-02-01 15:58:00,44.7,22.4,30.07,South,171,9.2,9.2,41,0.00,-RA,OVC,0.00,WeatherDisplay:10.37,2013-02-01 22:58:00,
2013-02-01 16:03:00,44.5,21.6,30.07,SSE,166,8.0,8.0,40,0.00,-RA,OVC,0.00,WeatherDisplay:10.37,2013-02-01 23:03:00,
2013-02-01 16:08:00,44.6,20.5,30.07,SE,140,11.5,11.5,38,0.00,-RA,OVC,0.00,WeatherDisplay:10.37,2013-02-01 23:08:00,
2013-02-01 16:13:00,44.5,20.4,30.07,SSE,148,5.8,5.8,38,0.00,-RA,OVC,0.00,WeatherDisplay:10.37,2013-02-01 23:13:00,
2013-02-01 16:18:00,44.5,19.8,30.07,South,173,12.7,12.7,37,0.00,-RA,OVC,0.00,WeatherDisplay:10.37,2013-02-01 23:18:00,
2013-02-01 16:23:00,44.5,19.8,30.07,SE,125,11.5,11.5,37,0.00,-RA,OVC,0.00,WeatherDisplay:10.37,2013-02-01 23:23:00,
2013-02-01 16:28:00,44.4,20.3,30.07,ESE,119,8.1,8.1,38,0.00,-RA,OVC,0.00,WeatherDisplay:10.37,2013-02-01 23:28:00,
2013-02-01 16:33:00,44.3,20.3,30.07,SE,128,8.1,8.1,38,0.00,-RA,OVC,0.00,WeatherDisplay:10.37,2013-02-01 23:33:00,
2013-02-01 16:38:00,44.1,20.7,30.07,SE,127,5.8,5.8,39,0.00,-RA,OVC,0.00,WeatherDisplay:10.37,2013-02-01 23:38:00,
2013-02-01 16:43:00,43.7,20.9,30.07,SSE,147,4.6,4.6,40,0.00,-RA,OVC,0.00,WeatherDisplay:10.37,2013-02-01 23:43:00,
2013-02-01 16:48:00,43.4,21.2,30.07,SE,145,3.5,3.5,41,0.00,-RA,OVC,0.00,WeatherDisplay:10.37,2013-02-01 23:48:00,
2013-02-01 16:53:00,43.1,21.0,30.07,ESE,119,6.9,6.9,41,0.00,-RA,OVC,0.00,WeatherDisplay:10.37,2013-02-01 23:53:00,
2013-02-01 16:58:00,42.9,20.8,30.07,ESE,119,4.6,4.6,41,0.00,-RA,OVC,0.00,WeatherDisplay:10.37,2013-02-01 23:58:00,
2013-02-01 17:03:00,42.8,21.3,30.07,ESE,119,3.5,3.5,42,0.00,-RA,OVC,0.00,WeatherDisplay:10.37,2013-02-02 00:03:00,
2013-02-01 17:08:00,42.6,21.1,30.07,ESE,116,4.6,4.6,42,0.00,-RA,OVC,0.00,WeatherDisplay:10.37,2013-02-02 00:08:00,
2013-02-01 17:13:00,42.3,20.8,30.07,SE,128,4.6,4.6,42,0.00,-RA,OVC,0.00,WeatherDisplay:10.37,2013-02-02 00:13:00,
2013-02-01 17:18:00,42.0,21.1,30.07,SE,128,1.1,1.1,43,0.00,-RA,OVC,0.00,WeatherDisplay:10.37,2013-02-02 00:18:00,
2013-02-01 17:23:00,41.7,21.4,30.07,SE,128,2.3,2.3,44,0.00,-RA,OVC,0.00,WeatherDisplay:10.37,2013-02-02 00:23:00,
2013-02-01 17:28:00,41.3,20.5,30.07,South,189,5.8,5.8,43,0.00,-RA,OVC,0.00,WeatherDisplay:10.37,2013-02-02 00:28:00,
2013-02-01 17:33:00,41.1,20.3,30.07,South,178,9.2,9.2,43,0.00,-RA,OVC,0.00,WeatherDisplay:10.37,2013-02-02 00:33:00,
2013-02-01 17:38:00,41.1,19.7,30.07,SSW,212,8.1,8.1,42,0.00,-RA,OVC,0.00,WeatherDisplay:10.37,2013-02-02 00:38:00,
2013-02-01 17:43:00,41.3,19.9,30.07,SW,222,11.5,11.5,42,0.00,-RA,OVC,0.00,WeatherDisplay:10.37,2013-02-02 00:43:00,
2013-02-01 17:48:00,41.4,20.0,30.07,SW,217,6.9,6.9,42,0.00,-RA,OVC,0.00,WeatherDisplay:10.37,2013-02-02 00:48:00,
2013-02-01 17:53:00,41.4,20.0,30.07,SSW,198,6.9,6.9,42,0.00,-RA,OVC,0.00,WeatherDisplay:10.37,2013-02-02 00:53:00,
2013-02-01 17:58:00,41.3,20.5,30.07,SSW,206,6.9,6.9,43,0.00,-RA,OVC,0.00,WeatherDisplay:10.37,2013-02-02 00:58:00,
2013-02-01 18:03:00,41.0,20.2,30.07,SSW,206,6.9,6.9,43,0.00,-RA,OVC,0.00,WeatherDisplay:10.37,2013-02-02 01:03:00,
2013-02-01 18:08:00,40.7,19.9,30.08,SSW,205,2.3,2.3,43,0.00,-RA,OVC,0.00,WeatherDisplay:10.37,2013-02-02 01:08:00,
2013-02-01 18:13:00,40.4,19.6,30.08,South,186,6.9,6.9,43,0.00,-RA,OVC,0.00,WeatherDisplay:10.37,2013-02-02 01:13:00,
2013-02-01 18:18:00,40.5,19.7,30.08,South,175,3.5,3.5,43,0.00,-RA,OVC,0.00,WeatherDisplay:10.37,2013-02-02 01:18:00,
2013-02-01 18:23:00,40.6,19.8,30.08,SE,136,3.5,3.5,43,0.00,-RA,OVC,0.00,WeatherDisplay:10.37,2013-02-02 01:23:00,
2013-02-01 18:28:00,40.5,19.7,30.08,SE,131,2.3,2.3,43,0.00,-RA,OVC,0.00,WeatherDisplay:10.37,2013-02-02 01:28:00,
2013-02-01 18:33:00,40.2,20.0,30.08,SE,131,0.0,0.0,44,0.00,-RA,OVC,0.00,WeatherDisplay:10.37,2013-02-02 01:33:00,
2013-02-01 18:38:00,39.7,19.5,30.08,SE,131,1.1,1.1,44,0.00,-RA,OVC,0.00,WeatherDisplay:10.37,2013-02-02 01:38:00,
2013-02-01 18:43:00,39.5,20.4,30.08,SE,129,1.1,0.0,46,0.00,-RA,OVC,0.00,WeatherDisplay:10.37,2013-02-02 01:43:00,
2013-02-01 18:48:00,39.0,19.9,30.08,SE,129,0.0,0.0,46,0.00,-RA,OVC,0.00,WeatherDisplay:10.37,2013-02-02 01:48:00,
2013-02-01 18:53:00,38.6,20.1,30.08,SE,129,0.0,0.0,47,0.00,-RA,OVC,0.00,WeatherDisplay:10.37,2013-02-02 01:53:00,
2013-02-01 18:58:00,38.2,19.7,30.08,ESE,105,4.6,4.6,47,0.00,-RA,OVC,0.00,WeatherDisplay:10.37,2013-02-02 01:58:00,
2013-02-01 19:03:00,38.2,19.7,30.08,ESE,121,0.0,0.0,47,0.00,-RA,OVC,0.00,WeatherDisplay:10.37,2013-02-02 02:03:00,
2013-02-01 19:08:00,38.1,19.1,30.08,ESE,121,0.0,0.0,46,0.00,-RA,OVC,0.00,WeatherDisplay:10.37,2013-02-02 02:08:00,
2013-02-01 19:13:00,38.0,19.0,30.08,ESE,123,2.0,2.0,46,0.00,-RA,OVC,0.00,WeatherDisplay:10.37,2013-02-02 02:13:00,
2013-02-01 19:18:00,38.0,19.0,30.08,ESE,123,3.5,3.5,46,0.00,-RA,OVC,0.00,WeatherDisplay:10.37,2013-02-02 02:18:00,
2013-02-01 19:23:00,37.8,18.8,30.08,ESE,123,0.0,0.0,46,0.00,-RA,OVC,0.00,WeatherDisplay:10.37,2013-02-02 02:23:00,
2013-02-01 19:28:00,37.4,19.0,30.08,NNW,338,3.5,3.5,47,0.00,-RA,OVC,0.00,WeatherDisplay:10.37,2013-02-02 02:28:00,
2013-02-01 19:33:00,37.3,17.9,30.08,East,88,0.0,0.9,45,0.00,-RA,OVC,0.00,WeatherDisplay:10.37,2013-02-02 02:33:00,
2013-02-01 19:38:00,37.9,18.4,30.08,East,84,3.5,3.5,45,0.00,-RA,OVC,0.00,WeatherDisplay:10.37,2013-02-02 02:38:00,
2013-02-01 19:43:00,37.7,18.8,30.08,East,84,0.0,0.0,46,0.00,-RA,OVC,0.00,WeatherDisplay:10.37,2013-02-02 02:43:00,
2013-02-01 19:48:00,37.3,18.9,30.08,East,84,2.3,2.3,47,0.00,-RA,OVC,0.00,WeatherDisplay:10.37,2013-02-02 02:48:00,
2013-02-01 19:53:00,37.1,18.2,30.10,East,84,0.0,0.0,46,0.00,-RA,OVC,0.00,WeatherDisplay:10.37,2013-02-02 02:53:00,
2013-02-01 19:58:00,36.9,18.0,30.10,East,84,3.5,3.5,46,0.00,-RA,OVC,0.00,WeatherDisplay:10.37,2013-02-02 02:58:00,
2013-02-01 20:03:00,37.0,15.5,30.10,WSW,241,6.9,6.9,41,0.00,-RA,OVC,0.00,WeatherDisplay:10.37,2013-02-02 03:03:00,
2013-02-01 20:08:00,38.2,16.0,30.10,WSW,241,5.8,5.8,40,0.00,-RA,OVC,0.00,WeatherDisplay:10.37,2013-02-02 03:08:00,
2013-02-01 20:13:00,38.7,15.8,30.11,WSW,239,3.5,3.5,39,0.00,-RA,OVC,0.00,WeatherDisplay:10.37,2013-02-02 03:13:00,
2013-02-01 20:18:00,39.1,15.0,30.11,West,261,4.6,5.0,37,0.00,-RA,OVC,0.00,WeatherDisplay:10.37,2013-02-02 03:18:00,
2013-02-01 20:23:00,39.6,17.2,30.11,West,275,11.5,11.5,40,0.00,-RA,OVC,0.00,WeatherDisplay:10.37,2013-02-02 03:23:00,
2013-02-01 20:28:00,39.2,18.0,30.11,WSW,251,6.9,6.9,42,0.00,-RA,OVC,0.00,WeatherDisplay:10.37,2013-02-02 03:28:00,
2013-02-01 20:33:00,38.7,18.6,30.11,West,266,3.5,3.5,44,0.00,-RA,OVC,0.00,WeatherDisplay:10.37,2013-02-02 03:33:00,
2013-02-01 20:38:00,38.4,18.9,30.11,West,266,2.3,2.3,45,0.00,-RA,OVC,0.00,WeatherDisplay:10.37,2013-02-02 03:38:00,
2013-02-01 20:43:00,38.0,19.5,30.11,West,266,2.3,2.3,47,0.00,-RA,OVC,0.00,WeatherDisplay:10.37,2013-02-02 03:43:00,
2013-02-01 20:48:00,37.5,19.1,30.11,West,266,0.0,0.0,47,0.00,-RA,OVC,0.00,WeatherDisplay:10.37,2013-02-02 03:48:00,
2013-02-01 20:53:00,36.9,19.5,30.11,West,266,0.0,0.0,49,0.00,-RA,OVC,0.00,WeatherDisplay:10.37,2013-02-02 03:53:00,
2013-02-01 20:58:00,36.5,19.6,30.11,West,266,2.3,0.0,50,0.00,-RA,OVC,0.00,WeatherDisplay:10.37,2013-02-02 03:58:00,
2013-02-01 21:03:00,35.9,19.5,30.11,West,266,0.0,0.0,51,0.00,-RA,OVC,0.00,WeatherDisplay:10.37,2013-02-02 04:03:00,
2013-02-01 21:08:00,35.2,19.3,30.11,SW,229,0.0,0.0,52,0.00,-RA,OVC,0.00,WeatherDisplay:10.37,2013-02-02 04:08:00,
2013-02-01 21:13:00,34.6,19.2,30.13,SW,229,0.0,0.0,53,0.00,-RA,OVC,0.00,WeatherDisplay:10.37,2013-02-02 04:13:00,
2013-02-01 21:18:00,33.9,19.4,30.13,SSW,201,2.3,0.0,55,0.00,-RA,OVC,0.00,WeatherDisplay:10.37,2013-02-02 04:18:00,
2013-02-01 21:23:00,33.6,19.6,30.13,SSW,201,0.0,0.0,56,0.00,-RA,OVC,0.00,WeatherDisplay:10.37,2013-02-02 04:23:00,
2013-02-01 21:28:00,33.2,19.2,30.13,SSW,201,0.0,0.0,56,0.00,-RA,OVC,0.00,WeatherDisplay:10.37,2013-02-02 04:28:00,
2013-02-01 21:33:00,32.8,19.6,30.13,SSW,199,3.5,3.5,58,0.00,-RA,OVC,0.00,WeatherDisplay:10.37,2013-02-02 04:33:00,
2013-02-01 21:38:00,32.5,19.3,30.13,SSW,198,2.3,2.3,58,0.00,-RA,OVC,0.00,WeatherDisplay:10.37,2013-02-02 04:38:00,
2013-02-01 21:43:00,32.2,19.5,30.13,SSW,198,0.0,0.1,59,0.00,-RA,OVC,0.00,WeatherDisplay:10.37,2013-02-02 04:43:00,
2013-02-01 21:48:00,31.8,19.1,30.13,SSW,198,0.0,0.0,59,0.00,-RA,OVC,0.00,WeatherDisplay:10.37,2013-02-02 04:48:00,
2013-02-01 21:53:00,31.5,19.2,30.13,SSW,198,1.1,1.1,60,0.00,-RA,OVC,0.00,WeatherDisplay:10.37,2013-02-02 04:53:00,
2013-02-01 21:58:00,31.4,19.1,30.13,SSW,198,1.1,0.0,60,0.00,-RA,OVC,0.00,WeatherDisplay:10.37,2013-02-02 04:58:00,
2013-02-01 22:00:00,31.3,19.4,30.13,SSW,200,3.5,3.5,61,0.00,-RA,OVC,0.00,WeatherDisplay:10.37,2013-02-02 05:00:00,
2013-02-01 22:01:00,31.3,19.4,30.13,SSW,200,3.5,3.5,61,0.00,-RA,OVC,0.00,WeatherDisplay:10.37,2013-02-02 05:01:00,
2013-02-01 22:06:00,31.1,19.2,30.13,SSW,200,0.0,0.0,61,0.00,-RA,OVC,0.00,WeatherDisplay:10.37,2013-02-02 05:06:00,
2013-02-01 22:11:00,31.1,19.6,30.13,East,91,3.5,3.5,62,0.00,-RA,OVC,0.00,WeatherDisplay:10.37,2013-02-02 05:11:00,
2013-02-01 22:16:00,32.1,19.8,30.13,North,5,3.5,3.5,60,0.00,-RA,OVC,0.00,WeatherDisplay:10.37,2013-02-02 05:16:00,
2013-02-01 22:21:00,32.8,20.0,30.13,ENE,76,3.5,3.5,59,0.00,-RA,OVC,0.00,WeatherDisplay:10.37,2013-02-02 05:21:00,
2013-02-01 22:26:00,32.9,19.7,30.13,NE,55,2.3,2.3,58,0.00,-RA,OVC,0.00,WeatherDisplay:10.37,2013-02-02 05:26:00,
2013-02-01 22:31:00,32.8,19.6,30.13,NE,56,3.5,3.5,58,0.00,-RA,OVC,0.00,WeatherDisplay:10.37,2013-02-02 05:31:00,
2013-02-01 22:36:00,32.6,19.4,30.15,NE,56,3.5,3.5,58,0.00,-RA,OVC,0.00,WeatherDisplay:10.37,2013-02-02 05:36:00,
2013-02-01 22:41:00,32.6,19.0,30.15,NE,55,3.5,3.5,57,0.00,-RA,OVC,0.00,WeatherDisplay:10.37,2013-02-02 05:41:00,
2013-02-01 22:46:00,32.5,19.3,30.15,NE,55,3.5,3.5,58,0.00,-RA,OVC,0.00,WeatherDisplay:10.37,2013-02-02 05:46:00,
2013-02-01 22:51:00,32.6,19.0,30.15,NE,55,3.5,3.5,57,0.00,-RA,OVC,0.00,WeatherDisplay:10.37,2013-02-02 05:51:00,
2013-02-01 22:56:00,32.7,19.1,30.15,ENE,57,3.5,3.5,57,0.00,-RA,OVC,0.00,WeatherDisplay:10.37,2013-02-02 05:56:00,
2013-02-01 23:01:00,32.8,19.2,30.15,ENE,58,0.0,0.0,57,0.00,-RA,OVC,0.00,WeatherDisplay:10.37,2013-02-02 06:01:00,
2013-02-01 23:06:00,32.9,18.9,30.15,ENE,57,3.5,3.5,56,0.00,-RA,OVC,0.00,WeatherDisplay:10.37,2013-02-02 06:06:00,
2013-02-01 23:11:00,32.9,18.9,30.15,ENE,57,2.3,2.3,56,0.00,-RA,OVC,0.00,WeatherDisplay:10.37,2013-02-02 06:11:00,
2013-02-01 23:16:00,32.8,18.8,30.15,NNE,15,8.1,8.1,56,0.00,-RA,OVC,0.00,WeatherDisplay:10.37,2013-02-02 06:16:00,
2013-02-01 23:21:00,33.3,18.9,30.15,NNE,31,7.0,7.0,55,0.00,-RA,OVC,0.00,WeatherDisplay:10.37,2013-02-02 06:21:00,
2013-02-01 23:26:00,34.3,18.9,30.15,NNE,14,3.5,3.5,53,0.00,-RA,OVC,0.00,WeatherDisplay:10.37,2013-02-02 06:26:00,
2013-02-01 23:31:00,34.7,18.9,30.15,NNE,15,3.5,3.5,52,0.00,-RA,OVC,0.00,WeatherDisplay:10.37,2013-02-02 06:31:00,
2013-02-01 23:36:00,34.8,18.9,30.15,North,9,4.6,4.6,52,0.00,-RA,OVC,0.00,WeatherDisplay:10.37,2013-02-02 06:36:00,
2013-02-01 23:41:00,34.4,18.6,30.15,North,360,4.6,4.6,52,0.00,-RA,OVC,0.00,WeatherDisplay:10.37,2013-02-02 06:41:00,
2013-02-01 23:46:00,34.0,18.6,30.15,ESE,118,4.6,4.6,53,0.00,-RA,OVC,0.00,WeatherDisplay:10.37,2013-02-02 06:46:00,
2013-02-01 23:51:00,33.9,18.6,30.15,ESE,118,0.0,0.0,53,0.00,-RA,OVC,0.00,WeatherDisplay:10.37,2013-02-02 06:51:00,
2013-02-01 23:56:00,33.7,18.4,30.15,ESE,118,2.3,2.3,53,0.00,-RA,OVC,0.00,WeatherDisplay:10.37,2013-02-02 06:56:00,